Preview of NWS' New Version of Forecast
This preview is not operational and should not be used for support decisions.

Regional Weather Roundup (RWR)

Issued by National Weather Service (NWS)

                            
000
ASUS46 KPQR 200910
RWROR 

OREGON REGIONAL WEATHER ROUNDUP
NATIONAL WEATHER SERVICE PORTLAND OR
200 AM PDT TUE AUG 20 2019

NOTE: "FAIR" INDICATES FEW OR NO CLOUDS BELOW 12,000 FEET WITH
NO SIGNIFICANT WEATHER AND/OR OBSTRUCTIONS TO VISIBILITY.

ORZ001>013-201000-
NORTHWEST OREGON

  
CITY           SKY/WX    TMP DP  RH WIND       PRES   REMARKS
ASTORIA        CLEAR     54  51  90 SE3       29.94F                  
TILLAMOOK      CLEAR     54  52  94 CALM      29.96F                  
NEWPORT        CLEAR     52  50  93 CALM      29.98                   
FLORENCE       FAIR      54  52  94 CALM      29.97S                  
PORTLAND       CLEAR     64  56  75 NW7       29.94S                  
VANCOUVER WA   CLEAR     59  54  83 CALM      29.93F                  
SCAPPOOSE      CLEAR     57  54  89 CALM      29.93S                  
HILLSBORO      CLEAR     57  53  86 CALM      29.93F                  
AURORA         CLEAR     62  55  77 NE3       29.95S                  
MCMINNVILLE    CLEAR     61  54  77 NW3       29.94S                  
SALEM          CLEAR     59  53  80 CALM      29.93S                  
CORVALLIS      CLEAR     60  54  80 NW5       29.95S                  
EUGENE         CLEAR     58  52  80 CALM      29.95S                  
CRESWELL       PTCLDY    55  54  94 CALM      29.95R                  
$$

ORZ021-028-201000-
SOUTHWEST OREGON

  
CITY           SKY/WX    TMP DP  RH WIND       PRES   REMARKS
NORTH BEND     CLEAR     56  55  97 SE6       29.99F                  
BROOKINGS      LGT RAIN  52  52 100 CALM      29.99S VSB 1/4          
ROSEBURG       CLEAR     66  56  70 CALM      29.95S                  
SEXTON SUMMIT  CLEAR     63  53  70 CALM      30.05F                  
GRANTS PASS    FAIR      64  54  68 CALM      29.98S                  
MEDFORD        CLEAR     70  52  52 CALM      29.94S                  
$$

ORZ014>016-041-201000-
COLUMBIA GORGE

  
CITY           SKY/WX    TMP DP  RH WIND       PRES   REMARKS
TROUTDALE      CLEAR     60  54  80 CALM      29.94S                  
HOOD RIVER     CLEAR     55  50  82 CALM      29.93R                  
THE DALLES     CLEAR     66  47  50 SW5       29.89R                  
$$

ORZ029>031-041-044-049-050-061>064-502-503-505>511-201000-
EASTERN OREGON

  
CITY           SKY/WX    TMP DP  RH WIND       PRES   REMARKS
MADRAS         PTCLDY    55  46  71 SE5       30.00S                  
REDMOND        PTCLDY    58  47  66 S3        30.01R                  
BEND           PTCLDY    61  48  63 S6        30.02S                  
PRINEVILLE     PTCLDY    61  46  59 CALM      30.01R                  
KLAMATH FALLS  PTCLDY    55  49  80 S5        30.06S                  
LAKEVIEW       CLEAR     42  32  67 N5        30.13R                  
HERMISTON      PTCLDY    63  47  55 CALM      29.88S                  
PENDLETON      PTCLDY    66  45  46 SE5       29.92R                  
JOHN DAY       PTCLDY    68  40  36 CALM      30.03R                  
MEACHAM        PTCLDY    47  41  80 CALM      30.05S                  
LA GRANDE      PTCLDY    58  46  64 N6        30.00R                  
BAKER CITY     PTCLDY    58  48  69 W5        30.02S                  
BURNS          MOCLDY    56  42  59 N5        30.03S                  
ROME             N/A     58  29  33 S7        30.00S                  
ONTARIO        CLEAR     69  44  40 NW6       29.91R                  
$$